Terminal Aerodrome Forecast
Issued by NWS

Home | Current Version | Previous Version | Text Only | Print | Product List | Glossary On
Versions: 1 2 3 4 5 6 7 8 9 10 11 12 13 14 15 16 17 18
992
FTUS42 KTAE 221120
TAFABY
TAF
KABY 221120Z 2212/2312 12005KT P6SM VCSH FEW011 SCT021 OVC070
     FM221600 15008KT P6SM BKN025
     FM221800 16007KT P6SM -TSRA BKN050CB
     FM230000 15006KT P6SM -SHRA BKN050=

USA.gov is the U.S. government's official web portal to all federal, state and local government web resources and services.